www.pogodaiklimat.ru

Погода и климат >> Архив погоды >> Венгрия >> Baja


ПОГОДА в Baja

  • Прогноз погоды в Baja
  • Монитор погоды в Baja
  • Климат города

АРХИВ ПОГОДЫ в Baja

Время (UTC), дата Ветер
(напр.,м/с)
 
Видим.   Явления Облачность Т
(С)
Тd
(С)
f
(%)
Тe
(С)
Тes
(С)
Комфортность P
(гПа)
Po
(гПа)
Тmin
(С)
Tmax
(С)
R
(мм)
R24
(мм)
S
(см)
14 9.10 штиль 0 н/о н/о +24.3 +11.6 45 +26 +26 жарко 1022.6 1009.5
13 9.10 С 1 н/о н/о +24.2 +11.9 46 +26 +26 жарко 1022.9 1009.8
15 9.10 штиль 0 н/о н/о +23.7 +11.7 47 +25 +25 комфорт 1022.5 1009.4
16 9.10 штиль 0 н/о н/о +21.0 +13.2 61 +23 +23 комфорт 1022.7 1009.5
17 9.10 С 1 н/о н/о +17.4 +12.5 73 +18 +18 1023.3 1009.9
18 9.10 штиль 0 н/о н/о +14.1 +12.0 87 +14 +14 1023.6 1010.1 +24.6
20 9.10 штиль 0 н/о н/о +11.8 +10.5 92 +11 +11 1024.3 1010.6
19 9.10 штиль 0 н/о н/о +12.6 +11.0 90 +12 +12 1023.9 1010.3
21 9.10 штиль 0 н/о н/о +11.1 +9.9 92 +10 +10 1024.7 1011.0
22 9.10 штиль 0 н/о н/о +10.5 +9.6 94 +10 +10 1024.8 1011.1
23 9.10 штиль 0 н/о н/о +10.7 +9.8 94 +10 +10 1024.9 1011.2
00 10.10 штиль 0 н/о н/о +9.3 +8.7 96 +8 +8 1025.1 1011.3
02 10.10 штиль 0 н/о н/о +7.8 +7.4 97 +7 +7 1025.4 1011.5
01 10.10 штиль 0 н/о н/о +8.3 +7.7 96 +7 +7 1025.1 1011.3
03 10.10 штиль 0 н/о н/о +7.3 +7.0 98 +6 +6 1025.7 1011.8
04 10.10 штиль 0 н/о н/о +6.5 +6.1 97 +5 +5 1025.6 1011.7
05 10.10 штиль 0 н/о н/о +6.2 +5.8 97 +5 +5 1025.4 1011.5
06 10.10 штиль 0 н/о н/о +6.1 +5.8 98 +5 +5 1025.8 1011.8 +5.8
08 10.10 штиль 0 н/о н/о +17.2 +12.7 75 +17 +17 1026.0 1012.6
07 10.10 штиль 0 н/о н/о +9.9 +9.8 99 +9 +9 1026.2 1012.4
09 10.10 штиль 0 н/о н/о +21.2 +11.8 55 +23 +23 комфорт 1025.7 1012.5
10 10.10 ЮВ 2 н/о н/о +22.9 +10.3 45 +25 +25 комфорт 1025.7 1012.5
11 10.10 В 1 н/о н/о +24.0 +9.6 40 +25 +25 комфорт 1025.2 1012.1
12 10.10 В 1 н/о н/о +24.6 +9.7 39 +25 +25 комфорт 1024.7 1011.6
14 10.10 В 1 н/о н/о +25.2 +10.3 39 +26 +26 жарко 1023.6 1010.6
13 10.10 ЮВ 1 н/о н/о +24.7 +9.8 39 +26 +26 жарко 1024.2 1011.1
15 10.10 В 1 н/о н/о +23.5 +10.6 44 +25 +25 комфорт 1023.4 1010.3
16 10.10 штиль 0 н/о н/о +20.8 +10.9 53 +22 +22 комфорт 1023.4 1010.2
17 10.10 штиль 0 н/о н/о +15.8 +11.4 75 +16 +16 1024.0 1010.5
18 10.10 штиль 0 н/о н/о +13.7 +10.5 81 +13 +13 1024.2 1010.6 +25.3
20 10.10 штиль 0 н/о н/о +10.5 +8.8 89 +10 +10 1024.5 1010.8
19 10.10 штиль 0 н/о н/о +12.4 +9.8 84 +12 +12 1024.3 1010.7
21 10.10 штиль 0 н/о н/о +9.9 +8.7 92 +9 +9 1024.6 1010.8
22 10.10 штиль 0 н/о н/о +8.8 +7.9 94 +8 +8 1024.4 1010.6
23 10.10 штиль 0 н/о н/о +9.6 +9.0 96 +9 +9 1024.5 1010.7
00 11.10 штиль 0 н/о н/о +8.7 +7.8 94 +8 +8 1024.6 1010.8
02 11.10 штиль 0 н/о н/о +7.7 +7.1 96 +7 +7 1024.2 1010.3
01 11.10 штиль 0 н/о н/о +8.0 +7.4 96 +7 +7 1024.4 1010.6
03 11.10 штиль 0 н/о н/о +7.0 +6.4 96 +6 +6 1024.1 1010.2
04 11.10 штиль 0 н/о н/о +6.8 +6.4 97 +6 +6 1024.1 1010.2
05 11.10 штиль 0 н/о н/о +6.1 +5.7 97 +5 +5 1024.2 1010.3
06 11.10 штиль 0 н/о н/о +6.4 +6.1 98 +5 +5 1024.6 1010.7 +5.8
08 11.10 ЮВ 1 н/о н/о +17.3 +10.9 66 +18 +18 1024.6 1011.2
07 11.10 штиль 0 н/о н/о +10.1 +10.0 99 +9 +9 1024.9 1011.1
09 11.10 ЮВ 1 н/о н/о +20.3 +11.8 58 +23 +23 комфорт 1024.7 1011.4
10 11.10 ЮВ 2 н/о н/о +21.6 +10.7 50 +23 +23 комфорт 1024.4 1011.2
11 11.10 ЮВ 2 н/о н/о +22.6 +11.0 48 +25 +25 комфорт 1024.1 1010.9
12 11.10 В 1 н/о н/о +24.4 +11.0 43 +26 +26 жарко 1023.4 1010.3
14 11.10 В 1 н/о н/о +24.3 +9.1 38 +25 +25 комфорт 1022.7 1009.6
13 11.10 ЮВ 1 н/о н/о +24.3 +9.8 40 +25 +25 комфорт 1023.1 1010.0
15 11.10 ЮВ 1 н/о н/о +22.9 +9.3 42 +24 +24 комфорт 1022.7 1009.6
16 11.10 штиль 0 н/о н/о +19.8 +9.7 52 +21 +21 комфорт 1022.8 1009.5
17 11.10 штиль 0 н/о н/о +16.0 +9.0 63 +16 +16 1023.5 1010.0
18 11.10 штиль 0 н/о н/о +14.1 +8.7 70 +14 +14 1023.9 1010.4 +24.9
20 11.10 штиль 0 н/о н/о +11.9 +7.8 76 +11 +11 1024.8 1011.1
19 11.10 штиль 0 н/о н/о +13.6 +8.4 71 +13 +13 1024.2 1010.6
21 11.10 штиль 0 н/о н/о +11.3 +8.0 80 +11 +11 1025.3 1011.6
22 11.10 штиль 0 н/о н/о +9.8 +7.2 84 +9 +9 1025.5 1011.7
23 11.10 штиль 0 н/о н/о +9.0 +6.8 86 +8 +8 1025.6 1011.8
00 12.10 штиль 0 н/о н/о +9.4 +7.2 86 +9 +9 1025.7 1011.9
02 12.10 штиль 0 н/о н/о +8.8 +6.9 88 +8 +8 1025.6 1011.8
01 12.10 штиль 0 н/о н/о +8.8 +6.8 87 +8 +8 1025.6 1011.8
03 12.10 штиль 0 н/о н/о +8.7 +7.3 91 +8 +8 1025.5 1011.7
04 12.10 штиль 0 н/о н/о +8.5 +7.0 90 +8 +8 1026.0 1012.2
05 12.10 штиль 0 н/о н/о +8.7 +7.0 89 +8 +8 1026.4 1012.6
06 12.10 штиль 0 н/о н/о +8.8 +7.3 90 +8 +8 1027.1 1013.3 +8.3
08 12.10 ЮВ 2 н/о н/о +18.3 +10.4 60 +19 +19 1027.7 1014.3
07 12.10 штиль 0 н/о н/о +12.7 +9.3 80 +12 +12 1027.7 1014.0
09 12.10 ЮВ 2 н/о н/о +20.4 +10.2 52 +23 +23 комфорт 1028.0 1014.7
10 12.10 ЮВ 2
{7}
н/о н/о +21.3 +8.9 45 +23 +23 комфорт 1028.1 1014.8
11 12.10 В 2 н/о н/о +23.0 +9.1 41 +24 +24 комфорт 1027.7 1014.5
12 12.10 ЮВ 2 н/о н/о +23.6 +7.7 36 +24 +24 комфорт 1027.3 1014.1
14 12.10 В 1 н/о н/о +23.3 +8.6 39 +25 +25 комфорт 1026.9 1013.7
13 12.10 В 2 н/о н/о +24.1 +8.5 37 +25 +25 комфорт 1026.8 1013.7
15 12.10 В 1 н/о н/о +22.1 +9.3 44 +24 +24 комфорт 1026.7 1013.5
16 12.10 штиль 0 н/о н/о +19.1 +9.3 53 +20 +20 1026.9 1013.5
17 12.10 штиль 0 н/о н/о +15.0 +8.9 67 +15 +15 1027.4 1013.8
18 12.10 штиль 0 н/о н/о +12.6 +8.7 77 +12 +12 1027.8 1014.1 +24.4
20 12.10 штиль 0 н/о н/о +11.7 +8.4 80 +11 +11 1028.4 1014.7
19 12.10 штиль 0 н/о н/о +11.2 +8.1 81 +11 +11 1028.0 1014.3
21 12.10 штиль 0 н/о н/о +10.7 +7.9 83 +10 +10 1028.7 1014.9
22 12.10 штиль 0 н/о н/о +10.0 +7.9 87 +9 +9 1028.6 1014.8
23 12.10 штиль 0 н/о н/о +8.9 +7.2 89 +8 +8 1028.7 1014.8
00 13.10 штиль 0 н/о н/о +7.2 +6.1 93 +6 +6 1028.9 1015.0
02 13.10 штиль 0 н/о н/о +6.1 +5.2 94 +5 +5 1028.8 1014.8
01 13.10 штиль 0 н/о н/о +7.5 +6.1 91 +7 +7 1028.8 1014.9
03 13.10 штиль 0 н/о н/о +6.0 +5.3 95 +5 +5 1028.9 1014.9
04 13.10 штиль 0 н/о н/о +5.9 +5.5 97 +5 +5 1028.8 1014.8
05 13.10 штиль 0 н/о н/о +4.8 +4.2 96 +4 +4 1029.0 1014.9
06 13.10 штиль 0 н/о н/о +5.6 +5.2 97 +4 +4 1029.2 1015.2 +4.6
08 13.10 ЮВ 1 н/о н/о +17.9 +10.0 60 +19 +19 1029.0 1015.6
07 13.10 штиль 0 н/о н/о +9.3 +9.0 98 +8 +8 1029.3 1015.5
09 13.10 ЮВ 2 н/о н/о +20.9 +7.9 43 +23 +23 комфорт 1028.8 1015.5
10 13.10 ЮВ 2 н/о н/о +22.5 +6.3 35 +23 +23 комфорт 1028.6 1015.4
11 13.10 ЮВ 2 н/о н/о +23.1 +6.4 34 +24 +24 комфорт 1028.5 1015.3
12 13.10 ЮВ 2 н/о н/о +23.2 +6.5 34 +24 +24 комфорт 1027.8 1014.6
14 13.10 В 1 н/о н/о +24.0 +7.2 34 +24 +24 комфорт 1026.4 1013.3
13 13.10 ЮВ 1 н/о н/о +24.4 +7.5 34 +25 +25 комфорт 1027.0 1013.9
15 13.10 В 1 н/о н/о +22.3 +8.1 40 +23 +23 комфорт 1026.1 1012.9
16 13.10 штиль 0 н/о н/о +19.3 +8.6 50 +20 +20 1026.1 1012.8
17 13.10 штиль 0 н/о н/о +14.8 +9.0 68 +15 +15 1026.3 1012.8
18 13.10 штиль 0 н/о н/о +12.4 +8.7 78 +12 +12 1026.5 1012.8 +24.7
20 13.10 штиль 0 н/о н/о +10.3 +7.5 83 +10 +10 1026.4 1012.6
19 13.10 штиль 0 н/о н/о +11.2 +7.9 80 +11 +11 1026.3 1012.6
21 13.10 штиль 0 н/о н/о +9.4 +7.7 89 +9 +9 1026.4 1012.6
22 13.10 штиль 0 н/о н/о +10.5 +8.3 86 +10 +10 1026.0 1012.3
23 13.10 ЮВ 1 н/о н/о +11.4 +7.3 76 +11 +11 1026.2 1012.5
00 14.10 штиль 0 н/о н/о +9.8 +6.9 82 +9 +9 1026.3 1012.5
02 14.10 штиль 0 н/о н/о +7.9 +5.9 87 +7 +7 1026.1 1012.2
01 14.10 В 1 н/о н/о +9.2 +6.5 83 +9 +9 1026.3 1012.5
03 14.10 штиль 0 н/о н/о +6.8 +5.3 90 +6 +6 1025.9 1012.0
04 14.10 штиль 0 н/о н/о +7.0 +5.6 91 +6 +6 1026.0 1012.1
05 14.10 штиль 0 н/о н/о +9.5 +4.3 70 +9 +9 1025.8 1012.0
06 14.10 штиль 0 н/о н/о +7.9 +4.3 78 +7 +7 1025.6 1011.7 +6.0
08 14.10 ЮВ 2 н/о н/о +17.9 +1.8 34 +18 +18 1025.3 1011.9
07 14.10 ЮВ 1 н/о н/о +12.4 +4.1 57 +13 +13 1025.6 1011.9
09 14.10 ЮВ 3
{8}
н/о н/о +19.9 +0.4 27 +20 +20 1025.1 1011.8
10 14.10 ЮВ 2
{8}
н/о н/о +22.2 +0.7 24 +22 +22 комфорт 1024.9 1011.7
11 14.10 ЮВ 3
{9}
н/о н/о +22.4 -0.3 22 +22 +22 комфорт 1024.5 1011.3
12 14.10 В 2
{8}
н/о н/о +23.6 +1.3 23 +23 +23 комфорт 1023.6 1010.5
14 14.10 ЮВ 1 н/о н/о +22.9 +0.1 22 +22 +22 комфорт 1022.6 1009.5
13 14.10 В 2
{7}
н/о н/о +23.6 +1.9 24 +23 +23 комфорт 1023.0 1009.9
15 14.10 В 1
{7}
н/о н/о +21.1 +0.3 25 +21 +21 комфорт 1022.4 1009.2
16 14.10 штиль 0 н/о н/о +17.9 +1.4 33 +18 +18 1022.6 1009.2
17 14.10 штиль 0 н/о н/о +13.4 +2.0 46 +13 +13 1023.1 1009.5
18 14.10 штиль 0 н/о н/о +12.0 +0.7 46 +12 +12 1022.9 1009.3 +23.9
20 14.10 штиль 0 н/о н/о +11.0 -0.2 46 +11 +11 1023.7 1010.0
19 14.10 ЮВ 1 н/о н/о +10.4 +0.4 50 +10 +10 1023.3 1009.6
21 14.10 ЮВ 1 н/о н/о +9.6 -0.0 51 +10 +10 1023.6 1009.8
22 14.10 штиль 0 н/о н/о +9.7 +0.1 51 +9 +9 1023.6 1009.8
23 14.10 штиль 0 н/о н/о +9.4 +0.6 54 +9 +9 1023.3 1009.5
00 15.10 штиль 0 н/о н/о +11.4 +0.5 47 +11 +11 1023.5 1009.8
02 15.10 В 1 н/о н/о +10.2 +1.3 54 +10 +10 1023.2 1009.5
01 15.10 В 1 н/о н/о +10.9 +0.9 50 +11 +11 1023.3 1009.6
03 15.10 штиль 0 н/о н/о +9.4 +1.6 58 +9 +9 1023.2 1009.4
04 15.10 В 1 н/о н/о +8.9 +2.0 62 +9 +9 1023.2 1009.4
05 15.10 В 1 н/о н/о +9.8 +2.2 59 +10 +10 1022.9 1009.2
06 15.10 В 2 н/о н/о +9.9 +2.7 61 +9 +9 1022.9 1009.2 +8.5
08 15.10 ЮВ 2
{8}
н/о н/о +17.5 +4.8 43 +18 +18 1023.3 1009.9
07 15.10 В 2
{7}
н/о н/о +14.3 +4.0 50 +14 +14 1023.4 1009.9
09 15.10 ЮВ 3 н/о н/о +19.9 +5.5 39 +21 +21 комфорт 1023.0 1009.7
10 15.10 ЮВ 3
{9}
н/о н/о +22.0 +4.6 32 +22 +22 комфорт 1022.9 1009.7
11 15.10 ЮВ 3
{8}
н/о н/о +22.7 +4.3 30 +23 +23 комфорт 1022.2 1009.1
12 15.10 ЮВ 2
{8}
н/о н/о +23.1 +4.1 29 +23 +23 комфорт 1021.7 1008.6
14 15.10 В 2
{7}
н/о н/о +22.9 +3.4 28 +23 +23 комфорт 1021.0 1007.9
13 15.10 ЮВ 2
{7}
н/о н/о +23.3 +3.8 28 +23 +23 комфорт 1021.3 1008.2
15 15.10 ЮВ 2 н/о н/о +21.7 +3.4 30 +22 +22 комфорт 1021.0 1007.8
16 15.10 штиль 0 н/о н/о +17.6 +3.5 39 +18 +18 1021.2 1007.8
17 15.10 штиль 0 н/о н/о +14.0 +3.8 50 +14 +14 1021.6 1008.1
18 15.10 штиль 0 н/о н/о +12.1 +3.8 57 +12 +12 1022.1 1008.5 +23.6
20 15.10 штиль 0 н/о н/о +12.5 +2.6 51 +12 +12 1022.2 1008.6
19 15.10 штиль 0 н/о н/о +11.7 +3.5 57 +11 +11 1021.9 1008.3
21 15.10 ЮВ 1 н/о н/о +10.0 +2.6 60 +10 +10 1022.4 1008.7
22 15.10 штиль 0 н/о н/о +9.2 +2.8 64 +9 +9 1022.5 1008.7
23 15.10 штиль 0 н/о н/о +8.5 +2.7 67 +8 +8 1022.7 1008.9
00 16.10 В 1 н/о н/о +7.8 +2.7 70 +7 +7 1022.8 1009.0
02 16.10 штиль 0 н/о н/о +5.5 +2.7 82 +5 +5 1022.3 1008.4
01 16.10 штиль 0 н/о н/о +6.2 +2.5 77 +5 +5 1022.9 1009.0
03 16.10 штиль 0 н/о н/о +6.9 +3.0 76 +6 +6 1022.5 1008.6
04 16.10 штиль 0 н/о н/о +5.6 +2.9 83 +5 +5 1022.5 1008.6
05 16.10 ЮВ 1 н/о н/о +7.0 +3.4 78 +6 +6 1022.4 1008.5
06 16.10 ЮВ 1 н/о н/о +7.3 +3.7 78 +7 +7 1022.7 1008.8 +5.2
08 16.10 ЮВ 1 н/о н/о +15.8 +6.5 54 +17 +17 1023.0 1009.5
07 16.10 ЮВ 1 н/о н/о +10.9 +5.0 67 +11 +11 1023.0 1009.3
09 16.10 Ю 2 н/о н/о +17.3 +6.8 50 +18 +18 1022.9 1009.5
10 16.10 Ю 3 н/о н/о +19.9 +6.3 41 +21 +21 комфорт 1022.6 1009.3
11 16.10 Ю 2 н/о н/о +20.5 +6.8 41 +22 +22 комфорт 1022.3 1009.1

 

Местоположение метеостанции Baja (Венгрия): широта 46.18 долгота 19.02 высота над уровнем моря 113 м.

В архиве по умолчанию представлена погода в Baja за последнюю неделю. Архивные данные за месяц целиком и за предыдущие месяцы, начиная с января 2011 года, Вы можете получить, выбрав интересующий диапазон дат из раскрывающегося списка и нажав кнопку "Ввод!".


*Определитесь, кто Вы:
робот инопланетянин человек

Внимание! Время в таблицах - всемирное. Для получения местного времени необходимо прибавить поправку, которая в Baja равна 1 ч.

Смотрите также архив погоды в соседних городах и на ближайших метеорологических станциях:

Погода в Paks (Венгрия) (46 км)
Погода в Sombor (Сербия) (47 км)
Погода в Palic (Сербия) (58 км)
Погода в Pecs (Венгрия) (64 км)
Погода в Osijek-Klisa (Хорватия) (80 км)
Погода в Osijek-Cepin (Хорватия) (83 км)
Погода в Szeged (Венгрия) (83 км)
Погода в Kaposvar (Венгрия) (94 км)
Погода в Kecskemet (Венгрия) (99 км)
Погода в Siofok (Венгрия) (111 км)

Пояснения к столбцам:

Ветер - указаны скорость ветра в м/с - средняя за 10 мин, порывы в срок и между сроками (в фигурных скобках) и направление, откуда дует ветер: С - северный, СВ - северо-восточный, В - восточный, ЮВ - юго-восточный, Ю - южный, ЮЗ - юго-западный, З - западный, СЗ - северо-западный.
Видимость - горизонтальная дальность видимости в метрах или километрах. При видимости от 1 до 10 км при отсутствии осадков обычно наблюдается дымка, при ухудшении видимости до 1 км и менее - туман. В сухую погоду видимость может ухудшаться дымом, пылью или мглою.
Явления - указаны атмосферные явления, наблюдавшиеся в срок или в последний час перед сроком; фигурными скобками обозначены явления, наблюдавшиеся между сроками (за 1-3 часа до срока); квадратными скобками обозначены град или гололедные отложения с указанием их диаметра в мм.
Облачность - указаны через наклонную черту общая и нижняя облачность в баллах и высота нижней границы облаков в метрах; квадратными скобками обозначены формы облаков: Ci - перистые, Cs - перисто-слоистые, Cc - перисто-кучевые, Ac - высококучевые, As - высокослоистые, Sc - слоисто-кучевые, Ns - слоисто-дождевые, Cu - кучевые, Cb - кучево-дождевые. Подробнее классификацию облаков см. в Атласе облаков (PDF).
T - Температура воздуха - температура, измеренная на высоте 2 м над землей.
Td - Температура точки росы - температура, при понижении до которой содержащийся в воздухе водяной пар достигнет насыщения.
f - Относительная влажность воздуха - влажноcть воздуха, измеренная на высоте 2 м над землей.
Te - Эффективная температура - температура, которую ощущает одетый по сезону человек в тени. Характеристика душности погоды. При расчете учитывается влияние влажности воздуха и скорости ветра на теплоощущения человека.
Tes - Эффективная температура на солнце - температура, которую ощущает человек, с поправкой на солнечный нагрев. Характеристика знойности погоды. Зависит от высоты солнца над горизонтом, облачности и скорости ветра. Ночью, в пасмурную погоду, а также при ветре 12 м/с и более поправка равна нулю.
P - Атмосферное давление - приведенное к уровню моря атмосферное давление.
Po - Атмосферное давление - измеренное на уровне метеостанции атмосферное давление.
Tmin - Минимальная температура - минимум температуры воздуха на высоте 2 м над землей.
Tmax - Максимальная температура - максимум температуры воздуха на высоте 2 м над землей.
R - Количество осадков - Количество выпавших осадков за период времени, мм. При наведении курсора мыши на число - период времени, за который выпало указанное количество осадков.
R24 - Количество осадков - Количество выпавших осадков за 24 часа, мм.
S - Снежный покров - Высота снежного покрова, см. При наведении курсора мыши на число - состояние снежного покрова и степень покрытия местности в баллах.